Hourly Data Report for May 08, 2012

All times are specified in Local Standard Time (LST). Add 1 hour to adjust for Daylight Saving Time where and when it is observed.

ST. JOHN'S INTL A
NEWFOUNDLAND

47°37'07.000" N
52°45'09.000" W
140.50 m
8403505
71801
YYT

Download Data

Hourly Data (May 2012)
Hourly Data Report for May 8, 2012
Temp Definition
°C
Dew Point Temp Definition
°C
Rel Hum Definition
%
Wind Dir Definition
10's deg

Wind Spd Definition
km/h
Visibility Definition
km
Stn Press Definition
kPa
Hmdx Definition


Wind Chill Definition


Weather Definition


TIME
00:30 Legend Double Dagger 3.1 2.7 97 35 8 10.0 100.23     LegendNANA
01:30 Legend Double Dagger 3.2 2.9 98 35 5 10.0 100.24     LegendNANA
02:30 Legend Double Dagger 3.3 2.9 97 0 5 10.0 100.22     Cloudy
03:30 Legend Double Dagger 3.7 3.0 95 1 5 10.0 100.21     LegendNANA
04:30 Legend Double Dagger 3.6 3.0 96 4 7 10.0 100.24     LegendNANA
05:30 Legend Double Dagger 2.9 2.8 99 4 6 8.1 100.28     Fog
06:30 Legend Double Dagger 3.7 3.4 98 35 5 10.0 100.34     LegendNANA
07:30 Legend Double Dagger 4.4 3.5 94 4 9 10.0 100.39     LegendNANA
08:30 Legend Double Dagger 5.9 4.2 89 5 7 10.0 100.40     Cloudy
09:30 Legend Double Dagger 7.8 3.7 75 7 8 10.0 100.43     LegendNANA
10:30 Legend Double Dagger 8.1 3.8 74 5 11 10.0 100.45     LegendNANA
11:30 Legend Double Dagger 9.2 3.8 69 6 14 10.0 100.46     Mostly Cloudy
12:30 Legend Double Dagger 9.2 2.3 62 5 17 10.0 100.48     LegendNANA
13:30 Legend Double Dagger 9.6 2.7 62 4 14 10.0 100.48     LegendNANA
14:30 Legend Double Dagger 10.0 2.6 60 5 20 10.0 100.44     Mainly Clear
15:30 Legend Double Dagger 9.7 1.4 56 7 17 10.0 100.43     LegendNANA
16:30 Legend Double Dagger 9.3 1.5 58 6 14 10.0 100.44     LegendNANA
17:30 Legend Double Dagger 8.1 0.8 60 9 13 10.0 100.42     Mainly Clear
18:30 Legend Double Dagger 6.6 0.7 66 9 9 10.0 100.43     LegendNANA
19:30 Legend Double Dagger 4.8 0.0 71 12 5 10.0 100.47     LegendNANA
20:30 Legend Double Dagger 5.2 1.0 74 16 5 10.0 100.54     Mostly Cloudy
21:30 Legend Double Dagger 4.7 1.9 82 15 7 10.0 100.56     LegendNANA
22:30 Legend Double Dagger 5.1 1.4 77 24 9 10.0 100.55     LegendNANA
23:30 Legend Double Dagger 3.8 0.3 78 21 7 10.0 100.52     Mainly Clear

Notes on Data Quality.

Legend

  • E = Estimated
  • M = Missing
  • NA = Not Available
  • ‡ = Partner data that is not subject to review by the National Climate Archives
Date modified: